Year,Month,Day,Hour,Minute,Value (Times are PST for temperature in C)
2016,03,30,00,00,9.60
2016,03,30,00,01,9.60
2016,03,30,00,02,9.60
2016,03,30,00,03,9.60
2016,03,30,00,04,9.60
2016,03,30,00,05,9.60
2016,03,30,00,06,9.60
2016,03,30,00,07,9.60
2016,03,30,00,08,9.60
2016,03,30,00,09,9.60
2016,03,30,00,10,9.70
2016,03,30,00,11,9.70
2016,03,30,00,12,9.70
2016,03,30,00,13,9.70
2016,03,30,00,14,9.70
2016,03,30,00,15,9.70
2016,03,30,00,16,9.70
2016,03,30,00,17,9.70
2016,03,30,00,18,9.70
2016,03,30,00,19,9.70
2016,03,30,00,20,9.70
2016,03,30,00,21,9.70
2016,03,30,00,22,9.80
2016,03,30,00,23,9.80
2016,03,30,00,24,9.80
2016,03,30,00,25,9.80
2016,03,30,00,26,9.80
2016,03,30,00,27,9.80
2016,03,30,00,28,9.80
2016,03,30,00,29,9.90
2016,03,30,00,30,9.90
2016,03,30,00,31,9.90
2016,03,30,00,32,9.90
2016,03,30,00,33,9.90
2016,03,30,00,34,9.90
2016,03,30,00,35,9.80
2016,03,30,00,36,9.80
2016,03,30,00,37,9.80
2016,03,30,00,38,9.80
2016,03,30,00,39,9.70
2016,03,30,00,40,9.70
2016,03,30,00,41,9.60
2016,03,30,00,42,9.60
2016,03,30,00,43,9.60
2016,03,30,00,44,9.50
2016,03,30,00,45,9.50
2016,03,30,00,46,9.40
2016,03,30,00,47,9.40
2016,03,30,00,48,9.30
2016,03,30,00,49,9.30
2016,03,30,00,50,9.30
2016,03,30,00,51,9.20
2016,03,30,00,52,9.20
2016,03,30,00,53,9.10
2016,03,30,00,54,9.10
2016,03,30,00,55,9.00
2016,03,30,00,56,9.00
2016,03,30,00,57,9.00
2016,03,30,00,58,8.90
2016,03,30,00,59,8.90
2016,03,30,01,00,8.90
2016,03,30,01,01,8.90
2016,03,30,01,02,8.90
2016,03,30,01,03,8.90
2016,03,30,01,04,8.90
2016,03,30,01,05,8.90
2016,03,30,01,06,8.90
2016,03,30,01,07,8.90
2016,03,30,01,08,8.90
2016,03,30,01,09,8.90
2016,03,30,01,10,8.90
2016,03,30,01,11,8.90
2016,03,30,01,12,8.90
2016,03,30,01,13,8.90
2016,03,30,01,14,8.90
2016,03,30,01,15,9.00
2016,03,30,01,16,9.00
2016,03,30,01,17,9.00
2016,03,30,01,18,9.10
2016,03,30,01,19,9.10
2016,03,30,01,20,9.10
2016,03,30,01,21,9.10
2016,03,30,01,22,9.10
2016,03,30,01,23,9.10
2016,03,30,01,24,9.10
2016,03,30,01,25,9.10
2016,03,30,01,26,9.10
2016,03,30,01,27,9.10
2016,03,30,01,28,9.10
2016,03,30,01,29,9.10
2016,03,30,01,30,9.10
2016,03,30,01,31,9.10
2016,03,30,01,32,9.10
2016,03,30,01,33,9.10
2016,03,30,01,34,9.10
2016,03,30,01,35,9.00
2016,03,30,01,36,9.00
2016,03,30,01,37,8.90
2016,03,30,01,38,8.90
2016,03,30,01,39,8.90
2016,03,30,01,40,8.90
2016,03,30,01,41,8.90
2016,03,30,01,42,8.90
2016,03,30,01,43,8.90
2016,03,30,01,44,8.90
2016,03,30,01,45,8.90
2016,03,30,01,46,8.90
2016,03,30,01,47,8.90
2016,03,30,01,48,8.90
2016,03,30,01,49,9.00
2016,03,30,01,50,9.00
2016,03,30,01,51,9.00
2016,03,30,01,52,9.00
2016,03,30,01,53,9.00
2016,03,30,01,54,9.00
2016,03,30,01,55,9.00
2016,03,30,01,56,9.00
2016,03,30,01,57,9.00
2016,03,30,01,58,9.00
2016,03,30,01,59,9.00
2016,03,30,02,00,9.00
2016,03,30,02,01,9.00
2016,03,30,02,02,8.90
2016,03,30,02,03,8.90
2016,03,30,02,04,8.90
2016,03,30,02,05,8.90
2016,03,30,02,06,8.90
2016,03,30,02,07,8.90
2016,03,30,02,08,8.90
2016,03,30,02,09,8.90
2016,03,30,02,10,8.90
2016,03,30,02,11,8.90
2016,03,30,02,12,8.90
2016,03,30,02,13,8.90
2016,03,30,02,14,8.80
2016,03,30,02,15,8.80
2016,03,30,02,16,8.80
2016,03,30,02,17,8.80
2016,03,30,02,18,8.80
2016,03,30,02,19,8.80
2016,03,30,02,20,8.80
2016,03,30,02,21,8.80
2016,03,30,02,22,8.80
2016,03,30,02,23,8.80
2016,03,30,02,24,8.80
2016,03,30,02,25,8.80
2016,03,30,02,26,8.80
2016,03,30,02,27,8.80
2016,03,30,02,28,8.80
2016,03,30,02,29,8.80
2016,03,30,02,30,8.80
2016,03,30,02,31,8.70
2016,03,30,02,32,8.70
2016,03,30,02,33,8.70
2016,03,30,02,34,8.70
2016,03,30,02,35,8.60
2016,03,30,02,36,8.60
2016,03,30,02,37,8.50
2016,03,30,02,38,8.40
2016,03,30,02,39,8.40
2016,03,30,02,40,8.30
2016,03,30,02,41,8.30
2016,03,30,02,42,8.30
2016,03,30,02,43,8.30
2016,03,30,02,44,8.30
2016,03,30,02,45,8.30
2016,03,30,02,46,8.30
2016,03,30,02,47,8.30
2016,03,30,02,48,8.30
2016,03,30,02,49,8.30
2016,03,30,02,50,8.20
2016,03,30,02,51,8.20
2016,03,30,02,52,8.20
2016,03,30,02,53,8.20
2016,03,30,02,54,8.20
2016,03,30,02,55,8.10
2016,03,30,02,56,8.10
2016,03,30,02,57,8.10
2016,03,30,02,58,8.20
2016,03,30,02,59,8.20
2016,03,30,03,00,8.20
2016,03,30,03,01,8.20
2016,03,30,03,02,8.20
2016,03,30,03,03,8.20
2016,03,30,03,04,8.20
2016,03,30,03,05,8.20
2016,03,30,03,06,8.20
2016,03,30,03,07,8.20
2016,03,30,03,08,8.20
2016,03,30,03,09,8.20
2016,03,30,03,10,8.20
2016,03,30,03,11,8.20
2016,03,30,03,12,8.20
2016,03,30,03,13,8.20
2016,03,30,03,14,8.20
2016,03,30,03,15,8.20
2016,03,30,03,16,8.20
2016,03,30,03,17,8.20
2016,03,30,03,18,8.20
2016,03,30,03,19,8.20
2016,03,30,03,20,8.30
2016,03,30,03,21,8.30
2016,03,30,03,22,8.30
2016,03,30,03,23,8.40
2016,03,30,03,24,8.40
2016,03,30,03,25,8.50
2016,03,30,03,26,8.50
2016,03,30,03,27,8.50
2016,03,30,03,28,8.50
2016,03,30,03,29,8.50
2016,03,30,03,30,8.50
2016,03,30,03,31,8.50
2016,03,30,03,32,8.40
2016,03,30,03,33,8.40
2016,03,30,03,34,8.50
2016,03,30,03,35,8.50
2016,03,30,03,36,8.50
2016,03,30,03,37,8.50
2016,03,30,03,38,8.50
2016,03,30,03,39,8.50
2016,03,30,03,40,8.50
2016,03,30,03,41,8.60
2016,03,30,03,42,8.60
2016,03,30,03,43,8.60
2016,03,30,03,44,8.50
2016,03,30,03,45,8.50
2016,03,30,03,46,8.50
2016,03,30,03,47,8.50
2016,03,30,03,48,8.40
2016,03,30,03,49,8.40
2016,03,30,03,50,8.40
2016,03,30,03,51,8.40
2016,03,30,03,52,8.40
2016,03,30,03,53,8.40
2016,03,30,03,54,8.40
2016,03,30,03,55,8.40
2016,03,30,03,56,8.40
2016,03,30,03,57,8.40
2016,03,30,03,58,8.40
2016,03,30,03,59,8.40
2016,03,30,04,00,8.40
2016,03,30,04,01,8.40
2016,03,30,04,02,8.50
2016,03,30,04,03,8.50
2016,03,30,04,04,8.50
2016,03,30,04,05,8.50
2016,03,30,04,06,8.50
2016,03,30,04,07,8.50
2016,03,30,04,08,8.50
2016,03,30,04,09,8.50
2016,03,30,04,10,8.50
2016,03,30,04,11,8.40
2016,03,30,04,12,8.40
2016,03,30,04,13,8.40
2016,03,30,04,14,8.40
2016,03,30,04,15,8.40
2016,03,30,04,16,8.40
2016,03,30,04,17,8.40
2016,03,30,04,18,8.40
2016,03,30,04,19,8.40
2016,03,30,04,20,8.40
2016,03,30,04,21,8.40
2016,03,30,04,22,8.40
2016,03,30,04,23,8.40
2016,03,30,04,24,8.40
2016,03,30,04,25,8.30
2016,03,30,04,26,8.30
2016,03,30,04,27,8.30
2016,03,30,04,28,8.30
2016,03,30,04,29,8.30
2016,03,30,04,30,8.30
2016,03,30,04,31,8.30
2016,03,30,04,32,8.30
2016,03,30,04,33,8.30
2016,03,30,04,34,8.30
2016,03,30,04,35,8.20
2016,03,30,04,36,8.20
2016,03,30,04,37,8.20
2016,03,30,04,38,8.10
2016,03,30,04,39,8.10
2016,03,30,04,40,8.10
2016,03,30,04,41,8.10
2016,03,30,04,42,8.10
2016,03,30,04,43,8.10
2016,03,30,04,44,8.10
2016,03,30,04,45,8.10
2016,03,30,04,46,8.20
2016,03,30,04,47,8.20
2016,03,30,04,48,8.20
2016,03,30,04,49,8.20
2016,03,30,04,50,8.20
2016,03,30,04,51,8.20
2016,03,30,04,52,8.30
2016,03,30,04,53,8.30
2016,03,30,04,54,8.30
2016,03,30,04,55,8.30
2016,03,30,04,56,8.30
2016,03,30,04,57,8.30
2016,03,30,04,58,8.30
2016,03,30,04,59,8.30
2016,03,30,05,00,8.30
2016,03,30,05,01,8.20
2016,03,30,05,02,8.20
2016,03,30,05,03,8.20
2016,03,30,05,04,8.20
2016,03,30,05,05,8.20
2016,03,30,05,06,8.10
2016,03,30,05,07,8.10
2016,03,30,05,08,8.00
2016,03,30,05,09,8.00
2016,03,30,05,10,7.90
2016,03,30,05,11,7.90
2016,03,30,05,12,7.90
2016,03,30,05,13,7.80
2016,03,30,05,14,7.80
2016,03,30,05,15,7.80
2016,03,30,05,16,7.80
2016,03,30,05,17,7.80
2016,03,30,05,18,7.70
2016,03,30,05,19,7.70
2016,03,30,05,20,7.70
2016,03,30,05,21,7.70
2016,03,30,05,22,7.70
2016,03,30,05,23,7.70
2016,03,30,05,24,7.70
2016,03,30,05,25,7.60
2016,03,30,05,26,7.60
2016,03,30,05,27,7.60
2016,03,30,05,28,7.50
2016,03,30,05,29,7.50
2016,03,30,05,30,7.40
2016,03,30,05,31,7.40
2016,03,30,05,32,7.40
2016,03,30,05,33,7.40
2016,03,30,05,34,7.40
2016,03,30,05,35,7.40
2016,03,30,05,36,7.40
2016,03,30,05,37,7.50
2016,03,30,05,38,7.50
2016,03,30,05,39,7.50
2016,03,30,05,40,7.60
2016,03,30,05,41,7.60
2016,03,30,05,42,7.60
2016,03,30,05,43,7.60
2016,03,30,05,44,7.70
2016,03,30,05,45,7.70
2016,03,30,05,46,7.70
2016,03,30,05,47,7.70
2016,03,30,05,48,7.70
2016,03,30,05,49,7.70
2016,03,30,05,50,7.70
2016,03,30,05,51,7.70
2016,03,30,05,52,7.70
2016,03,30,05,53,7.70
2016,03,30,05,54,7.60
2016,03,30,05,55,7.50
2016,03,30,05,56,7.50
2016,03,30,05,57,7.40
2016,03,30,05,58,7.30
2016,03,30,05,59,7.30
2016,03,30,06,00,7.30
2016,03,30,06,01,7.30
2016,03,30,06,02,7.30
2016,03,30,06,03,7.30
2016,03,30,06,04,7.30
2016,03,30,06,05,7.20
2016,03,30,06,06,7.20
2016,03,30,06,07,7.20
2016,03,30,06,08,7.10
2016,03,30,06,09,7.10
2016,03,30,06,10,7.10
2016,03,30,06,11,7.10
2016,03,30,06,12,7.10
2016,03,30,06,13,7.10
2016,03,30,06,14,7.00
2016,03,30,06,15,7.00
2016,03,30,06,16,7.00
2016,03,30,06,17,6.90
2016,03,30,06,18,6.90
2016,03,30,06,19,6.80
2016,03,30,06,20,6.80
2016,03,30,06,21,6.80
2016,03,30,06,22,6.70
2016,03,30,06,23,6.70
2016,03,30,06,24,6.70
2016,03,30,06,25,6.70
2016,03,30,06,26,6.70
2016,03,30,06,27,6.80
2016,03,30,06,28,6.80
2016,03,30,06,29,6.80
2016,03,30,06,30,6.80
2016,03,30,06,31,6.80
2016,03,30,06,32,6.80
2016,03,30,06,33,6.90
2016,03,30,06,34,6.90
2016,03,30,06,35,6.90
2016,03,30,06,36,6.90
2016,03,30,06,37,6.90
2016,03,30,06,38,6.90
2016,03,30,06,39,6.90
2016,03,30,06,40,6.90
2016,03,30,06,41,6.90
2016,03,30,06,42,6.90
2016,03,30,06,43,6.90
2016,03,30,06,44,7.00
2016,03,30,06,45,7.00
2016,03,30,06,46,7.00
2016,03,30,06,47,7.00
2016,03,30,06,48,7.00
2016,03,30,06,49,7.10
2016,03,30,06,50,7.10
2016,03,30,06,51,7.10
2016,03,30,06,52,7.10
2016,03,30,06,53,7.10
2016,03,30,06,54,7.00
2016,03,30,06,55,7.00
2016,03,30,06,56,7.00
2016,03,30,06,57,7.00
2016,03,30,06,58,7.00
2016,03,30,06,59,7.00
2016,03,30,07,00,7.00
2016,03,30,07,01,7.00
2016,03,30,07,02,7.00
2016,03,30,07,03,6.90
2016,03,30,07,04,7.00
2016,03,30,07,05,6.90
2016,03,30,07,06,6.90
2016,03,30,07,07,6.90
2016,03,30,07,08,6.90
2016,03,30,07,09,6.90
2016,03,30,07,10,6.80
2016,03,30,07,11,6.80
2016,03,30,07,12,6.80
2016,03,30,07,13,6.70
2016,03,30,07,14,6.70
2016,03,30,07,15,6.70
2016,03,30,07,16,6.70
2016,03,30,07,17,6.70
2016,03,30,07,18,6.70
2016,03,30,07,19,6.70
2016,03,30,07,20,6.70
2016,03,30,07,21,6.70
2016,03,30,07,22,6.70
2016,03,30,07,23,6.70
2016,03,30,07,24,6.80
2016,03,30,07,25,6.80
2016,03,30,07,26,6.90
2016,03,30,07,27,6.90
2016,03,30,07,28,7.00
2016,03,30,07,29,7.00
2016,03,30,07,30,7.10
2016,03,30,07,31,7.10
2016,03,30,07,32,7.20
2016,03,30,07,33,7.20
2016,03,30,07,34,7.20
2016,03,30,07,35,7.10
2016,03,30,07,36,7.10
2016,03,30,07,37,7.00
2016,03,30,07,38,6.90
2016,03,30,07,39,6.80
2016,03,30,07,40,6.70
2016,03,30,07,41,6.60
2016,03,30,07,42,6.50
2016,03,30,07,43,6.50
2016,03,30,07,44,6.50
2016,03,30,07,45,6.50
2016,03,30,07,46,6.50
2016,03,30,07,47,6.50
2016,03,30,07,48,6.60
2016,03,30,07,49,6.60
2016,03,30,07,50,6.70
2016,03,30,07,51,6.70
2016,03,30,07,52,6.70
2016,03,30,07,53,6.70
2016,03,30,07,54,6.70
2016,03,30,07,55,6.70
2016,03,30,07,56,6.70
2016,03,30,07,57,6.70
2016,03,30,07,58,6.70
2016,03,30,07,59,6.80
2016,03,30,08,00,6.80
2016,03,30,08,01,6.90
2016,03,30,08,02,7.00
2016,03,30,08,03,7.00
2016,03,30,08,04,7.10
2016,03,30,08,05,7.10
2016,03,30,08,06,7.20
2016,03,30,08,07,7.20
2016,03,30,08,08,7.20
2016,03,30,08,09,7.30
2016,03,30,08,10,7.30
2016,03,30,08,11,7.40
2016,03,30,08,12,7.50
2016,03,30,08,13,7.50
2016,03,30,08,14,7.60
2016,03,30,08,15,7.60
2016,03,30,08,16,7.70
2016,03,30,08,17,7.80
2016,03,30,08,18,7.90
2016,03,30,08,19,8.00
2016,03,30,08,20,8.20
2016,03,30,08,21,8.30
2016,03,30,08,22,8.40
2016,03,30,08,23,8.50
2016,03,30,08,24,8.60
2016,03,30,08,25,8.80
2016,03,30,08,26,8.90
2016,03,30,08,27,9.00
2016,03,30,08,28,9.10
2016,03,30,08,29,9.20
2016,03,30,08,30,9.30
2016,03,30,08,31,9.30
2016,03,30,08,32,9.40
2016,03,30,08,33,9.50
2016,03,30,08,34,9.50
2016,03,30,08,35,9.60
2016,03,30,08,36,9.70
2016,03,30,08,37,9.80
2016,03,30,08,38,9.80
2016,03,30,08,39,9.90
2016,03,30,08,40,9.90
2016,03,30,08,41,10.00
2016,03,30,08,42,10.00
2016,03,30,08,43,10.10
2016,03,30,08,44,10.20
2016,03,30,08,45,10.20
2016,03,30,08,46,10.30
2016,03,30,08,47,10.30
2016,03,30,08,48,10.40
2016,03,30,08,49,10.40
2016,03,30,08,50,10.50
2016,03,30,08,51,10.50
2016,03,30,08,52,10.60
2016,03,30,08,53,10.70
2016,03,30,08,54,10.80
2016,03,30,08,55,10.90
2016,03,30,08,56,11.00
2016,03,30,08,57,11.10
2016,03,30,08,58,11.20
2016,03,30,08,59,11.30
2016,03,30,09,00,11.40
2016,03,30,09,01,11.40
2016,03,30,09,02,11.50
2016,03,30,09,03,11.50
2016,03,30,09,04,11.50
2016,03,30,09,05,11.50
2016,03,30,09,06,11.50
2016,03,30,09,07,11.60
2016,03,30,09,08,11.70
2016,03,30,09,09,11.70
2016,03,30,09,10,11.80
2016,03,30,09,11,11.80
2016,03,30,09,12,11.80
2016,03,30,09,13,11.80
2016,03,30,09,14,11.80
2016,03,30,09,15,11.80
2016,03,30,09,16,11.80
2016,03,30,09,17,11.80
2016,03,30,09,18,11.80
2016,03,30,09,19,11.90
2016,03,30,09,20,11.90
2016,03,30,09,21,12.00
2016,03,30,09,22,12.10
2016,03,30,09,23,12.10
2016,03,30,09,24,12.10
2016,03,30,09,25,12.10
2016,03,30,09,26,12.10
2016,03,30,09,27,12.10
2016,03,30,09,28,12.10
2016,03,30,09,29,12.10
2016,03,30,09,30,12.10
2016,03,30,09,31,12.10
2016,03,30,09,32,12.10
2016,03,30,09,33,12.10
2016,03,30,09,34,12.10
2016,03,30,09,35,12.10
2016,03,30,09,36,12.10
2016,03,30,09,37,12.10
2016,03,30,09,38,12.20
2016,03,30,09,39,12.20
2016,03,30,09,40,12.30
2016,03,30,09,41,12.30
2016,03,30,09,42,12.40
2016,03,30,09,43,12.40
2016,03,30,09,44,12.40
2016,03,30,09,45,12.40
2016,03,30,09,46,12.40
2016,03,30,09,47,12.40
2016,03,30,09,48,12.40
2016,03,30,09,49,12.50
2016,03,30,09,50,12.50
2016,03,30,09,51,12.40
2016,03,30,09,52,12.40
2016,03,30,09,53,12.40
2016,03,30,09,54,12.30
2016,03,30,09,55,12.30
2016,03,30,09,56,12.30
2016,03,30,09,57,12.20
2016,03,30,09,58,12.20
2016,03,30,09,59,12.20
2016,03,30,10,00,12.20
2016,03,30,10,01,12.20
2016,03,30,10,02,12.30
2016,03,30,10,03,12.30
2016,03,30,10,04,12.30
2016,03,30,10,05,12.30
2016,03,30,10,06,12.30
2016,03,30,10,07,12.30
2016,03,30,10,08,12.40
2016,03,30,10,09,12.40
2016,03,30,10,10,12.40
2016,03,30,10,11,12.40
2016,03,30,10,12,12.50
2016,03,30,10,13,12.50
2016,03,30,10,14,12.60
2016,03,30,10,15,12.70
2016,03,30,10,16,12.70
2016,03,30,10,17,12.70
2016,03,30,10,18,12.80
2016,03,30,10,19,12.90
2016,03,30,10,20,12.90
2016,03,30,10,21,13.10
2016,03,30,10,22,13.20
2016,03,30,10,23,13.10
2016,03,30,10,24,13.10
2016,03,30,10,25,13.00
2016,03,30,10,26,13.00
2016,03,30,10,27,13.00
2016,03,30,10,28,13.00
2016,03,30,10,29,13.00
2016,03,30,10,30,12.90
2016,03,30,10,31,12.80
2016,03,30,10,32,12.70
2016,03,30,10,33,12.60
2016,03,30,10,34,12.60
2016,03,30,10,35,12.50
2016,03,30,10,36,12.40
2016,03,30,10,37,12.30
2016,03,30,10,38,12.20
2016,03,30,10,39,12.10
2016,03,30,10,40,12.10
2016,03,30,10,41,12.10
2016,03,30,10,42,12.10
2016,03,30,10,43,12.10
2016,03,30,10,44,12.10
2016,03,30,10,45,12.00
2016,03,30,10,46,12.00
2016,03,30,10,47,12.00
2016,03,30,10,48,11.90
2016,03,30,10,49,12.00
2016,03,30,10,50,12.00
2016,03,30,10,51,12.00
2016,03,30,10,52,12.00
2016,03,30,10,53,12.00
2016,03,30,10,54,12.10
2016,03,30,10,55,12.10
2016,03,30,10,56,12.20
2016,03,30,10,57,12.20
2016,03,30,10,58,12.20
2016,03,30,10,59,12.20
2016,03,30,11,00,12.20
2016,03,30,11,01,12.30
2016,03,30,11,02,12.40
2016,03,30,11,03,12.40
2016,03,30,11,04,12.40
2016,03,30,11,05,12.40
2016,03,30,11,06,12.40
2016,03,30,11,07,12.50
2016,03,30,11,08,12.50
2016,03,30,11,09,12.50
2016,03,30,11,10,12.60
2016,03,30,11,11,12.70
2016,03,30,11,12,12.70
2016,03,30,11,13,12.80
2016,03,30,11,14,12.80
2016,03,30,11,15,12.90
2016,03,30,11,16,12.90
2016,03,30,11,17,12.90
2016,03,30,11,18,12.90
2016,03,30,11,19,12.90
2016,03,30,11,20,12.90
2016,03,30,11,21,12.90
2016,03,30,11,22,12.90
2016,03,30,11,23,12.90
2016,03,30,11,24,12.90
2016,03,30,11,25,12.90
2016,03,30,11,26,12.90
2016,03,30,11,27,12.90
2016,03,30,11,28,12.90
2016,03,30,11,29,13.00
2016,03,30,11,30,13.00
2016,03,30,11,31,13.10
2016,03,30,11,32,13.10
2016,03,30,11,33,13.20
2016,03,30,11,34,13.20
2016,03,30,11,35,13.20
2016,03,30,11,36,13.30
2016,03,30,11,37,13.30
2016,03,30,11,38,13.40
2016,03,30,11,39,13.50
2016,03,30,11,40,13.50
2016,03,30,11,41,13.50
2016,03,30,11,42,13.60
2016,03,30,11,43,13.70
2016,03,30,11,44,13.70
2016,03,30,11,45,13.80
2016,03,30,11,46,13.80
2016,03,30,11,47,13.70
2016,03,30,11,48,13.70
2016,03,30,11,49,13.60
2016,03,30,11,50,13.60
2016,03,30,11,51,13.60
2016,03,30,11,52,13.60
2016,03,30,11,53,13.60
2016,03,30,11,54,13.70
2016,03,30,11,55,13.70
2016,03,30,11,56,13.70
2016,03,30,11,57,13.70
2016,03,30,11,58,13.70
2016,03,30,11,59,13.80
2016,03,30,12,00,13.90
2016,03,30,12,01,14.00
2016,03,30,12,02,14.10
2016,03,30,12,03,14.20
2016,03,30,12,04,14.20
2016,03,30,12,05,14.30
2016,03,30,12,06,14.30
2016,03,30,12,07,14.30
2016,03,30,12,08,14.30
2016,03,30,12,09,14.30
2016,03,30,12,10,14.30
2016,03,30,12,11,14.30
2016,03,30,12,12,14.40
2016,03,30,12,13,14.30
2016,03,30,12,14,14.30
2016,03,30,12,15,14.40
2016,03,30,12,16,14.60
2016,03,30,12,17,14.80
2016,03,30,12,18,15.00
2016,03,30,12,19,15.10
2016,03,30,12,20,15.30
2016,03,30,12,21,15.50
2016,03,30,12,22,15.60
2016,03,30,12,23,15.70
2016,03,30,12,24,15.70
2016,03,30,12,25,15.70
2016,03,30,12,26,15.80
2016,03,30,12,27,15.80
2016,03,30,12,28,15.70
2016,03,30,12,29,15.70
2016,03,30,12,30,15.80
2016,03,30,12,31,15.80
2016,03,30,12,32,15.80
2016,03,30,12,33,15.80
2016,03,30,12,34,15.90
2016,03,30,12,35,15.90
2016,03,30,12,36,15.90
2016,03,30,12,37,16.00
2016,03,30,12,38,16.00
2016,03,30,12,39,16.10
2016,03,30,12,40,16.10
2016,03,30,12,41,16.10
2016,03,30,12,42,16.10
2016,03,30,12,43,16.00
2016,03,30,12,44,16.00
2016,03,30,12,45,16.00
2016,03,30,12,46,16.00
2016,03,30,12,47,16.00
2016,03,30,12,48,16.10
2016,03,30,12,49,16.20
2016,03,30,12,50,16.20
2016,03,30,12,51,16.30
2016,03,30,12,52,16.40
2016,03,30,12,53,16.40
2016,03,30,12,54,16.40
2016,03,30,12,55,16.50
2016,03,30,12,56,16.60
2016,03,30,12,57,16.60
2016,03,30,12,58,16.70
2016,03,30,12,59,16.70
2016,03,30,13,00,16.70
2016,03,30,13,01,16.60
2016,03,30,13,02,16.70
2016,03,30,13,03,16.80
2016,03,30,13,04,16.90
2016,03,30,13,05,16.90
2016,03,30,13,06,16.80
2016,03,30,13,07,16.80
2016,03,30,13,08,16.70
2016,03,30,13,09,16.60
2016,03,30,13,10,16.50
2016,03,30,13,11,16.50
2016,03,30,13,12,16.50
2016,03,30,13,13,16.50
2016,03,30,13,14,16.60
2016,03,30,13,15,16.60
2016,03,30,13,16,16.60
2016,03,30,13,17,16.60
2016,03,30,13,18,16.60
2016,03,30,13,19,16.70
2016,03,30,13,20,16.70
2016,03,30,13,21,16.70
2016,03,30,13,22,16.70
2016,03,30,13,23,16.70
2016,03,30,13,24,16.70
2016,03,30,13,25,16.70
2016,03,30,13,26,16.80
2016,03,30,13,27,16.80
2016,03,30,13,28,16.80
2016,03,30,13,29,16.80
2016,03,30,13,30,16.80
2016,03,30,13,31,16.80
2016,03,30,13,32,16.80
2016,03,30,13,33,16.80
2016,03,30,13,34,16.80
2016,03,30,13,35,16.80
2016,03,30,13,36,16.70
2016,03,30,13,37,16.80
2016,03,30,13,38,16.70
2016,03,30,13,39,16.70
2016,03,30,13,40,16.70
2016,03,30,13,41,16.70
2016,03,30,13,42,16.70
2016,03,30,13,43,16.70
2016,03,30,13,44,16.70
2016,03,30,13,45,16.70
2016,03,30,13,46,16.70
2016,03,30,13,47,16.60
2016,03,30,13,48,16.60
2016,03,30,13,49,16.50
2016,03,30,13,50,16.40
2016,03,30,13,51,16.40
2016,03,30,13,52,16.40
2016,03,30,13,53,16.40
2016,03,30,13,54,16.30
2016,03,30,13,55,16.30
2016,03,30,13,56,16.30
2016,03,30,13,57,16.30
2016,03,30,13,58,16.20
2016,03,30,13,59,16.20
2016,03,30,14,00,16.20
2016,03,30,14,01,16.20
2016,03,30,14,02,16.20
2016,03,30,14,03,16.20
2016,03,30,14,04,16.20
2016,03,30,14,05,16.30
2016,03,30,14,06,16.30
2016,03,30,14,07,16.20
2016,03,30,14,08,16.20
2016,03,30,14,09,16.20
2016,03,30,14,10,16.20
2016,03,30,14,11,16.20
2016,03,30,14,12,16.20
2016,03,30,14,13,16.20
2016,03,30,14,14,16.20
2016,03,30,14,15,16.10
2016,03,30,14,16,16.10
2016,03,30,14,17,16.10
2016,03,30,14,18,16.10
2016,03,30,14,19,16.10
2016,03,30,14,20,16.20
2016,03,30,14,21,16.20
2016,03,30,14,22,16.30
2016,03,30,14,23,16.30
2016,03,30,14,24,16.30
2016,03,30,14,25,16.40
2016,03,30,14,26,16.50
2016,03,30,14,27,16.50
2016,03,30,14,28,16.60
2016,03,30,14,29,16.60
2016,03,30,14,30,16.60
2016,03,30,14,31,16.70
2016,03,30,14,32,16.70
2016,03,30,14,33,16.70
2016,03,30,14,34,16.80
2016,03,30,14,35,16.80
2016,03,30,14,36,16.80
2016,03,30,14,37,16.90
2016,03,30,14,38,16.90
2016,03,30,14,39,16.90
2016,03,30,14,40,17.00
2016,03,30,14,41,16.90
2016,03,30,14,42,16.90
2016,03,30,14,43,16.90
2016,03,30,14,44,16.90
2016,03,30,14,45,16.90
2016,03,30,14,46,16.90
2016,03,30,14,47,16.90
2016,03,30,14,48,16.90
2016,03,30,14,49,16.90
2016,03,30,14,50,16.90
2016,03,30,14,51,17.00
2016,03,30,14,52,17.00
2016,03,30,14,53,17.10
2016,03,30,14,54,17.00
2016,03,30,14,55,17.10
2016,03,30,14,56,17.10
2016,03,30,14,57,17.10
2016,03,30,14,58,17.10
2016,03,30,14,59,17.10
2016,03,30,15,00,17.10
2016,03,30,15,01,17.10
2016,03,30,15,02,17.10
2016,03,30,15,03,17.10
2016,03,30,15,04,17.10
2016,03,30,15,05,17.10
2016,03,30,15,06,17.10
2016,03,30,15,07,17.10
2016,03,30,15,08,17.00
2016,03,30,15,09,17.00
2016,03,30,15,10,16.90
2016,03,30,15,11,16.90
2016,03,30,15,12,16.90
2016,03,30,15,13,16.90
2016,03,30,15,14,16.90
2016,03,30,15,15,16.90
2016,03,30,15,16,16.90
2016,03,30,15,17,16.90
2016,03,30,15,18,16.90
2016,03,30,15,19,16.90
2016,03,30,15,20,16.90
2016,03,30,15,21,16.90
2016,03,30,15,22,16.90
2016,03,30,15,23,16.90
2016,03,30,15,24,16.90
2016,03,30,15,25,17.00
2016,03,30,15,26,17.10
2016,03,30,15,27,17.10
2016,03,30,15,28,17.20
2016,03,30,15,29,17.20
2016,03,30,15,30,17.20
2016,03,30,15,31,17.30
2016,03,30,15,32,17.30
2016,03,30,15,33,17.40
2016,03,30,15,34,17.40
2016,03,30,15,35,17.40
2016,03,30,15,36,17.50
2016,03,30,15,37,17.50
2016,03,30,15,38,17.50
2016,03,30,15,39,17.60
2016,03,30,15,40,17.60
2016,03,30,15,41,17.70
2016,03,30,15,42,17.70
2016,03,30,15,43,17.70
2016,03,30,15,44,17.70
2016,03,30,15,45,17.70
2016,03,30,15,46,17.80
2016,03,30,15,47,17.80
2016,03,30,15,48,17.80
2016,03,30,15,49,17.80
2016,03,30,15,50,17.80
2016,03,30,15,51,17.90
2016,03,30,15,52,17.90
2016,03,30,15,53,17.90
2016,03,30,15,54,18.00
2016,03,30,15,55,18.00
2016,03,30,15,56,18.10
2016,03,30,15,57,18.10
2016,03,30,15,58,18.10
2016,03,30,15,59,18.20
2016,03,30,16,00,18.40
2016,03,30,16,01,18.40
2016,03,30,16,02,18.50
2016,03,30,16,03,18.50
2016,03,30,16,04,18.50
2016,03,30,16,05,18.50
2016,03,30,16,06,18.50
2016,03,30,16,07,18.50
2016,03,30,16,08,18.40
2016,03,30,16,09,18.40
2016,03,30,16,10,18.40
2016,03,30,16,11,18.40
2016,03,30,16,12,18.40
2016,03,30,16,13,18.40
2016,03,30,16,14,18.50
2016,03,30,16,15,18.60
2016,03,30,16,16,18.70
2016,03,30,16,17,18.70
2016,03,30,16,18,18.70
2016,03,30,16,19,18.80
2016,03,30,16,20,18.80
2016,03,30,16,21,18.80
2016,03,30,16,22,18.80
2016,03,30,16,23,18.80
2016,03,30,16,24,18.90
2016,03,30,16,25,18.90
2016,03,30,16,26,18.90
2016,03,30,16,27,19.00
2016,03,30,16,28,19.00
2016,03,30,16,29,19.10
2016,03,30,16,30,19.20
2016,03,30,16,31,19.30
2016,03,30,16,32,19.40
2016,03,30,16,33,19.50
2016,03,30,16,34,19.60
2016,03,30,16,35,19.60
2016,03,30,16,36,19.60
2016,03,30,16,37,19.60
2016,03,30,16,38,19.60
2016,03,30,16,39,19.60
2016,03,30,16,40,19.70
2016,03,30,16,41,19.70
2016,03,30,16,42,19.70
2016,03,30,16,43,19.80
2016,03,30,16,44,19.80
2016,03,30,16,45,19.80
2016,03,30,16,46,19.80
2016,03,30,16,47,19.80
2016,03,30,16,48,19.80
2016,03,30,16,49,19.80
2016,03,30,16,50,19.80
2016,03,30,16,51,19.80
2016,03,30,16,52,19.90
2016,03,30,16,53,19.80
2016,03,30,16,54,19.80
2016,03,30,16,55,19.80
2016,03,30,16,56,19.80
2016,03,30,16,57,19.80
2016,03,30,16,58,19.80
2016,03,30,16,59,19.70
2016,03,30,17,00,19.60
2016,03,30,17,01,19.60
2016,03,30,17,02,19.60
2016,03,30,17,03,19.60
2016,03,30,17,04,19.60
2016,03,30,17,05,19.60
2016,03,30,17,06,19.60
2016,03,30,17,07,19.60
2016,03,30,17,08,19.60
2016,03,30,17,09,19.70
2016,03,30,17,10,19.70
2016,03,30,17,11,19.70
2016,03,30,17,12,19.70
2016,03,30,17,13,19.70
2016,03,30,17,14,19.80
2016,03,30,17,15,19.80
2016,03,30,17,16,19.80
2016,03,30,17,17,19.80
2016,03,30,17,18,19.80
2016,03,30,17,19,19.90
2016,03,30,17,20,19.90
2016,03,30,17,21,19.90
2016,03,30,17,22,19.90
2016,03,30,17,23,19.80
2016,03,30,17,24,19.80
2016,03,30,17,25,19.70
2016,03,30,17,26,19.70
2016,03,30,17,27,19.70
2016,03,30,17,28,19.70
2016,03,30,17,29,19.80
2016,03,30,17,30,19.80
2016,03,30,17,31,19.90
2016,03,30,17,32,19.90
2016,03,30,17,33,20.00
2016,03,30,17,34,20.10
2016,03,30,17,35,20.10
2016,03,30,17,36,20.00
2016,03,30,17,37,20.00
2016,03,30,17,38,20.00
2016,03,30,17,39,19.90
2016,03,30,17,40,19.90
2016,03,30,17,41,20.00
2016,03,30,17,42,20.00